contact:dominique.lefevre@mio.osupytheas.fr, maurice.libes@osupytheas.fr, didier.mallarino@osupytheas.fr
Project:EMSO http://www.emso-fr.org/EMSO-France
Depth: 2436.0 m
Title:EMSO Ligure Ouest : Data MII capteur MICROCAT
DateTime_Computer,Latitude,Longitude,Temperature,Conductivity,Pressure,DateTime_Instrument
DateTime_Computer,Latitude,Longitude,degC,S m-1,dbar,DateTime_Instrument
2023-02-22T00:01:29Z,42.805,6.029,13.3046,4.60128,2470.427,2023-2-22T02:03:57Z
2023-02-22T00:04:32Z,42.805,6.029,13.3037,4.60142,2470.45,2023-2-22T02:07:00Z
2023-02-22T00:07:35Z,42.805,6.029,13.3048,4.60126,2470.437,2023-2-22T02:10:03Z
2023-02-22T00:10:38Z,42.805,6.029,13.3048,4.60132,2470.427,2023-2-22T02:13:06Z
2023-02-22T00:13:42Z,42.805,6.029,13.3036,4.60140,2470.413,2023-2-22T02:16:09Z
2023-02-22T00:16:45Z,42.805,6.029,13.3039,4.60135,2470.437,2023-2-22T02:19:12Z
2023-02-22T00:19:48Z,42.805,6.029,13.3038,4.60127,2470.437,2023-2-22T02:22:15Z
2023-02-22T00:22:51Z,42.805,6.029,13.3054,4.60112,2470.413,2023-2-22T02:25:18Z
2023-02-22T00:25:54Z,42.805,6.029,13.3042,4.60122,2470.413,2023-2-22T02:28:21Z
2023-02-22T00:28:57Z,42.805,6.029,13.3051,4.60148,2470.427,2023-2-22T02:31:25Z
2023-02-22T00:32:00Z,42.805,6.029,13.3048,4.60131,2470.437,2023-2-22T02:34:28Z
2023-02-22T00:35:03Z,42.805,6.029,13.3049,4.60140,2470.404,2023-2-22T02:37:31Z
2023-02-22T00:38:06Z,42.805,6.029,13.3050,4.60112,2470.427,2023-2-22T02:40:34Z
2023-02-22T00:41:09Z,42.805,6.029,13.3039,4.60125,2470.39,2023-2-22T02:43:37Z
2023-02-22T00:44:12Z,42.805,6.029,13.3049,4.60135,2470.404,2023-2-22T02:46:40Z
2023-02-22T00:47:15Z,42.805,6.029,13.3054,4.60125,2470.413,2023-2-22T02:49:43Z
2023-02-22T00:50:18Z,42.805,6.029,13.3041,4.60144,2470.39,2023-2-22T02:52:46Z
2023-02-22T00:53:22Z,42.805,6.029,13.3034,4.60127,2470.366,2023-2-22T02:55:49Z
2023-02-22T00:56:25Z,42.805,6.029,13.3043,4.60128,2470.413,2023-2-22T02:58:52Z
2023-02-22T00:59:28Z,42.805,6.029,13.3036,4.60135,2470.38,2023-2-22T03:01:55Z
2023-02-22T01:02:31Z,42.805,6.029,13.3044,4.60130,2470.404,2023-2-22T03:04:58Z
2023-02-22T01:05:34Z,42.805,6.029,13.3047,4.60132,2470.39,2023-2-22T03:08:02Z
2023-02-22T01:08:37Z,42.805,6.029,13.3037,4.60133,2470.38,2023-2-22T03:11:05Z
2023-02-22T01:11:40Z,42.805,6.029,13.3039,4.60130,2470.413,2023-2-22T03:14:08Z
2023-02-22T01:14:43Z,42.805,6.029,13.3050,4.60139,2470.39,2023-2-22T03:17:11Z
2023-02-22T01:17:46Z,42.805,6.029,13.3054,4.60156,2470.366,2023-2-22T03:20:14Z
2023-02-22T01:20:49Z,42.805,6.029,13.3043,4.60138,2470.366,2023-2-22T03:23:17Z
2023-02-22T01:23:52Z,42.805,6.029,13.3063,4.60126,2470.427,2023-2-22T03:26:20Z
2023-02-22T01:26:55Z,42.805,6.029,13.3046,4.60127,2470.404,2023-2-22T03:29:23Z
2023-02-22T01:29:59Z,42.805,6.029,13.3039,4.60132,2470.366,2023-2-22T03:32:26Z
2023-02-22T01:33:02Z,42.805,6.029,13.3046,4.60150,2470.39,2023-2-22T03:35:29Z
2023-02-22T01:36:05Z,42.805,6.029,13.3051,4.60155,2470.343,2023-2-22T03:38:32Z
2023-02-22T01:39:08Z,42.805,6.029,13.3045,4.60139,2470.366,2023-2-22T03:41:35Z
2023-02-22T01:42:11Z,42.805,6.029,13.3046,4.60132,2470.366,2023-2-22T03:44:38Z
2023-02-22T01:45:14Z,42.805,6.029,13.3045,4.60139,2470.343,2023-2-22T03:47:42Z
2023-02-22T01:48:17Z,42.805,6.029,13.3043,4.60152,2470.404,2023-2-22T03:50:45Z
2023-02-22T01:51:20Z,42.805,6.029,13.3038,4.60153,2470.366,2023-2-22T03:53:48Z
2023-02-22T01:54:23Z,42.805,6.029,13.3053,4.60126,2470.366,2023-2-22T03:56:51Z
2023-02-22T01:57:26Z,42.805,6.029,13.3055,4.60127,2470.366,2023-2-22T03:59:54Z
2023-02-22T02:00:29Z,42.805,6.029,13.3044,4.60140,2470.357,2023-2-22T04:02:57Z
2023-02-22T02:03:32Z,42.805,6.029,13.3044,4.60148,2470.357,2023-2-22T04:06:00Z
2023-02-22T02:06:35Z,42.805,6.029,13.3048,4.60141,2470.366,2023-2-22T04:09:03Z
2023-02-22T02:09:39Z,42.805,6.029,13.3039,4.60131,2470.343,2023-2-22T04:12:06Z
2023-02-22T02:12:42Z,42.805,6.029,13.3051,4.60140,2470.343,2023-2-22T04:15:09Z
2023-02-22T02:15:45Z,42.805,6.029,13.3050,4.60144,2470.343,2023-2-22T04:18:12Z
2023-02-22T02:18:48Z,42.805,6.029,13.3060,4.60141,2470.357,2023-2-22T04:21:15Z
2023-02-22T02:21:51Z,42.805,6.029,13.3054,4.60131,2470.357,2023-2-22T04:24:19Z
2023-02-22T02:24:54Z,42.805,6.029,13.3046,4.60119,2470.366,2023-2-22T04:27:22Z
2023-02-22T02:27:57Z,42.805,6.029,13.3048,4.60133,2470.38,2023-2-22T04:30:25Z
2023-02-22T02:31:00Z,42.805,6.029,13.3047,4.60157,2470.357,2023-2-22T04:33:28Z
2023-02-22T02:34:03Z,42.805,6.029,13.3055,4.60132,2470.343,2023-2-22T04:36:31Z
2023-02-22T02:37:06Z,42.805,6.029,13.3066,4.60127,2470.357,2023-2-22T04:39:34Z
2023-02-22T02:40:09Z,42.805,6.029,13.3056,4.60131,2470.366,2023-2-22T04:42:37Z
2023-02-22T02:43:12Z,42.805,6.029,13.3056,4.60117,2470.38,2023-2-22T04:45:40Z
2023-02-22T02:46:16Z,42.805,6.029,13.3043,4.60104,2470.343,2023-2-22T04:48:43Z
2023-02-22T02:49:19Z,42.805,6.029,13.3050,4.60117,2470.38,2023-2-22T04:51:46Z
2023-02-22T02:52:22Z,42.805,6.029,13.3051,4.60119,2470.334,2023-2-22T04:54:49Z
2023-02-22T02:55:25Z,42.805,6.029,13.3050,4.60135,2470.343,2023-2-22T04:57:52Z
2023-02-22T02:58:28Z,42.805,6.029,13.3053,4.60152,2470.32,2023-2-22T05:00:56Z
2023-02-22T03:01:31Z,42.805,6.029,13.3049,4.60147,2470.366,2023-2-22T05:03:59Z
2023-02-22T03:04:34Z,42.805,6.029,13.3059,4.60117,2470.343,2023-2-22T05:07:02Z
2023-02-22T03:07:37Z,42.805,6.029,13.3042,4.60120,2470.343,2023-2-22T05:10:05Z
2023-02-22T03:10:40Z,42.805,6.029,13.3042,4.60140,2470.38,2023-2-22T05:13:08Z
2023-02-22T03:13:43Z,42.805,6.029,13.3050,4.60124,2470.366,2023-2-22T05:16:11Z
2023-02-22T03:16:46Z,42.805,6.029,13.3050,4.60139,2470.343,2023-2-22T05:19:14Z
2023-02-22T03:19:49Z,42.805,6.029,13.3048,4.60125,2470.366,2023-2-22T05:22:17Z
2023-02-22T03:22:53Z,42.805,6.029,13.3043,4.60139,2470.366,2023-2-22T05:25:20Z
2023-02-22T03:25:56Z,42.805,6.029,13.3065,4.60135,2470.366,2023-2-22T05:28:23Z
2023-02-22T03:28:59Z,42.805,6.029,13.3056,4.60122,2470.366,2023-2-22T05:31:26Z
2023-02-22T03:32:02Z,42.805,6.029,13.3045,4.60144,2470.38,2023-2-22T05:34:29Z
2023-02-22T03:35:05Z,42.805,6.029,13.3047,4.60114,2470.357,2023-2-22T05:37:33Z
2023-02-22T03:38:08Z,42.805,6.029,13.3049,4.60127,2470.357,2023-2-22T05:40:36Z
2023-02-22T03:41:11Z,42.805,6.029,13.3039,4.60134,2470.366,2023-2-22T05:43:39Z
2023-02-22T03:44:14Z,42.805,6.029,13.3046,4.60117,2470.343,2023-2-22T05:46:42Z
2023-02-22T03:47:17Z,42.805,6.029,13.3047,4.60151,2470.38,2023-2-22T05:49:45Z
2023-02-22T03:50:20Z,42.805,6.029,13.3063,4.60152,2470.38,2023-2-22T05:52:48Z
2023-02-22T03:53:23Z,42.805,6.029,13.3052,4.60145,2470.366,2023-2-22T05:55:51Z
2023-02-22T03:56:26Z,42.805,6.029,13.3062,4.60129,2470.38,2023-2-22T05:58:54Z
2023-02-22T03:59:30Z,42.805,6.029,13.3039,4.60096,2470.366,2023-2-22T06:01:57Z
2023-02-22T04:02:33Z,42.805,6.029,13.3066,4.60119,2470.39,2023-2-22T06:05:00Z
2023-02-22T04:05:36Z,42.805,6.029,13.3058,4.60104,2470.38,2023-2-22T06:08:03Z
2023-02-22T04:08:39Z,42.805,6.029,13.3053,4.60134,2470.366,2023-2-22T06:11:06Z
2023-02-22T04:11:42Z,42.805,6.029,13.3055,4.60111,2470.366,2023-2-22T06:14:10Z
2023-02-22T04:14:45Z,42.805,6.029,13.3054,4.60104,2470.404,2023-2-22T06:17:13Z
2023-02-22T04:17:48Z,42.805,6.029,13.3051,4.60097,2470.404,2023-2-22T06:20:16Z
2023-02-22T04:20:51Z,42.805,6.029,13.3058,4.60122,2470.39,2023-2-22T06:23:19Z
2023-02-22T04:23:54Z,42.805,6.029,13.3051,4.60106,2470.413,2023-2-22T06:26:22Z
2023-02-22T04:26:57Z,42.805,6.029,13.3052,4.60125,2470.417,2023-2-22T06:29:25Z
2023-02-22T04:30:00Z,42.805,6.029,13.3046,4.60114,2470.427,2023-2-22T06:32:28Z
2023-02-22T04:33:03Z,42.805,6.029,13.3064,4.60117,2470.437,2023-2-22T06:35:31Z
2023-02-22T04:36:06Z,42.805,6.029,13.3053,4.60101,2470.39,2023-2-22T06:38:34Z
2023-02-22T04:39:10Z,42.805,6.029,13.3038,4.60092,2470.413,2023-2-22T06:41:37Z
2023-02-22T04:42:13Z,42.805,6.029,13.3029,4.60089,2470.404,2023-2-22T06:44:40Z
2023-02-22T04:45:16Z,42.805,6.029,13.3042,4.60120,2470.413,2023-2-22T06:47:43Z
2023-02-22T04:48:19Z,42.805,6.029,13.3045,4.60109,2470.45,2023-2-22T06:50:47Z
2023-02-22T04:51:22Z,42.805,6.029,13.3047,4.60119,2470.45,2023-2-22T06:53:50Z
2023-02-22T04:54:25Z,42.805,6.029,13.3046,4.60121,2470.427,2023-2-22T06:56:53Z
2023-02-22T04:57:28Z,42.805,6.029,13.3048,4.60121,2470.437,2023-2-22T06:59:56Z
2023-02-22T05:00:31Z,42.805,6.029,13.3045,4.60107,2470.437,2023-2-22T07:02:59Z
2023-02-22T05:03:34Z,42.805,6.029,13.3051,4.60125,2470.45,2023-2-22T07:06:02Z
2023-02-22T05:06:37Z,42.805,6.029,13.3040,4.60120,2470.437,2023-2-22T07:09:05Z
2023-02-22T05:09:40Z,42.805,6.029,13.3038,4.60101,2470.46,2023-2-22T07:12:08Z
2023-02-22T05:12:43Z,42.805,6.029,13.3048,4.60113,2470.46,2023-2-22T07:15:11Z
2023-02-22T05:15:46Z,42.805,6.029,13.3046,4.60122,2470.437,2023-2-22T07:18:14Z
2023-02-22T05:18:50Z,42.805,6.029,13.3054,4.60144,2470.497,2023-2-22T07:21:17Z
2023-02-22T05:21:53Z,42.805,6.029,13.3050,4.60113,2470.46,2023-2-22T07:24:20Z
2023-02-22T05:24:56Z,42.805,6.029,13.3056,4.60125,2470.474,2023-2-22T07:27:23Z
2023-02-22T05:27:59Z,42.805,6.029,13.3056,4.60112,2470.46,2023-2-22T07:30:27Z
2023-02-22T05:31:02Z,42.805,6.029,13.3050,4.60116,2470.497,2023-2-22T07:33:30Z
2023-02-22T05:34:05Z,42.805,6.029,13.3056,4.60141,2470.507,2023-2-22T07:36:33Z
2023-02-22T05:37:08Z,42.805,6.029,13.3039,4.60139,2470.507,2023-2-22T07:39:36Z
2023-02-22T05:40:11Z,42.805,6.029,13.3046,4.60129,2470.507,2023-2-22T07:42:39Z
2023-02-22T05:43:14Z,42.805,6.029,13.3050,4.60130,2470.52,2023-2-22T07:45:42Z
2023-02-22T05:46:17Z,42.805,6.029,13.3048,4.60140,2470.483,2023-2-22T07:48:45Z
2023-02-22T05:49:20Z,42.805,6.029,13.3054,4.60122,2470.507,2023-2-22T07:51:48Z
2023-02-22T05:52:23Z,42.805,6.029,13.3057,4.60121,2470.52,2023-2-22T07:54:51Z
2023-02-22T05:55:27Z,42.805,6.029,13.3048,4.60158,2470.544,2023-2-22T07:57:54Z
2023-02-22T05:58:30Z,42.805,6.029,13.3053,4.60141,2470.53,2023-2-22T08:00:57Z
2023-02-22T06:01:33Z,42.805,6.029,13.3051,4.60124,2470.52,2023-2-22T08:04:00Z
2023-02-22T06:04:36Z,42.805,6.029,13.3039,4.60103,2470.53,2023-2-22T08:07:03Z
2023-02-22T06:07:39Z,42.805,6.029,13.3055,4.60103,2470.507,2023-2-22T08:10:07Z
2023-02-22T06:10:42Z,42.805,6.029,13.3047,4.60113,2470.53,2023-2-22T08:13:10Z
2023-02-22T06:13:45Z,42.805,6.029,13.3055,4.60135,2470.577,2023-2-22T08:16:13Z
2023-02-22T06:16:48Z,42.805,6.029,13.3047,4.60125,2470.577,2023-2-22T08:19:16Z
2023-02-22T06:19:51Z,42.805,6.029,13.3053,4.60109,2470.53,2023-2-22T08:22:19Z
2023-02-22T06:22:54Z,42.805,6.029,13.3047,4.60129,2470.553,2023-2-22T08:25:22Z
2023-02-22T06:25:57Z,42.805,6.029,13.3043,4.60111,2470.577,2023-2-22T08:28:25Z
2023-02-22T06:29:00Z,42.805,6.029,13.3038,4.60129,2470.591,2023-2-22T08:31:28Z
2023-02-22T06:32:03Z,42.805,6.029,13.3038,4.60128,2470.553,2023-2-22T08:34:31Z
2023-02-22T06:35:07Z,42.805,6.029,13.3043,4.60141,2470.6,2023-2-22T08:37:34Z
2023-02-22T06:38:10Z,42.805,6.029,13.3038,4.60090,2470.567,2023-2-22T08:40:37Z
2023-02-22T06:41:13Z,42.805,6.029,13.3040,4.60114,2470.637,2023-2-22T08:43:40Z
2023-02-22T06:44:16Z,42.805,6.029,13.3050,4.60112,2470.591,2023-2-22T08:46:44Z
2023-02-22T06:47:19Z,42.805,6.029,13.3046,4.60150,2470.6,2023-2-22T08:49:47Z
2023-02-22T06:50:22Z,42.805,6.029,13.3042,4.60129,2470.614,2023-2-22T08:52:50Z
2023-02-22T06:53:25Z,42.805,6.029,13.3043,4.60140,2470.577,2023-2-22T08:55:53Z
2023-02-22T06:56:28Z,42.805,6.029,13.3036,4.60137,2470.6,2023-2-22T08:58:56Z
2023-02-22T06:59:31Z,42.805,6.029,13.3041,4.60155,2470.637,2023-2-22T09:01:59Z
2023-02-22T07:02:34Z,42.805,6.029,13.3052,4.60148,2470.646,2023-2-22T09:05:02Z
2023-02-22T07:05:37Z,42.805,6.029,13.3043,4.60124,2470.6,2023-2-22T09:08:05Z
2023-02-22T07:08:40Z,42.805,6.029,13.3052,4.60123,2470.637,2023-2-22T09:11:08Z
2023-02-22T07:11:43Z,42.805,6.029,13.3046,4.60140,2470.6,2023-2-22T09:14:11Z
2023-02-22T07:14:47Z,42.805,6.029,13.3058,4.60120,2470.661,2023-2-22T09:17:14Z
2023-02-22T07:17:50Z,42.805,6.029,13.3046,4.60122,2470.624,2023-2-22T09:20:17Z
2023-02-22T07:20:53Z,42.805,6.029,13.3059,4.60135,2470.637,2023-2-22T09:23:21Z
2023-02-22T07:23:56Z,42.805,6.029,13.3046,4.60120,2470.646,2023-2-22T09:26:24Z
2023-02-22T07:26:59Z,42.805,6.029,13.3057,4.60129,2470.624,2023-2-22T09:29:27Z
2023-02-22T07:30:02Z,42.805,6.029,13.3049,4.60135,2470.646,2023-2-22T09:32:30Z
2023-02-22T07:33:05Z,42.805,6.029,13.3043,4.60147,2470.67,2023-2-22T09:35:33Z
2023-02-22T07:36:08Z,42.805,6.029,13.3049,4.60114,2470.684,2023-2-22T09:38:36Z
2023-02-22T07:39:11Z,42.805,6.029,13.3050,4.60110,2470.624,2023-2-22T09:41:39Z
2023-02-22T07:42:14Z,42.805,6.029,13.3053,4.60129,2470.661,2023-2-22T09:44:42Z
2023-02-22T07:45:17Z,42.805,6.029,13.3047,4.60117,2470.67,2023-2-22T09:47:45Z
2023-02-22T07:48:20Z,42.805,6.029,13.3054,4.60133,2470.684,2023-2-22T09:50:48Z
2023-02-22T07:51:24Z,42.805,6.029,13.3053,4.60110,2470.684,2023-2-22T09:53:51Z
2023-02-22T07:54:27Z,42.805,6.029,13.3044,4.60126,2470.67,2023-2-22T09:56:54Z
2023-02-22T07:57:30Z,42.805,6.029,13.3040,4.60125,2470.684,2023-2-22T09:59:58Z
2023-02-22T08:00:33Z,42.805,6.029,13.3056,4.60105,2470.661,2023-2-22T10:03:01Z
2023-02-22T08:03:36Z,42.805,6.029,13.3050,4.60120,2470.646,2023-2-22T10:06:04Z
2023-02-22T08:06:39Z,42.805,6.029,13.3050,4.60138,2470.67,2023-2-22T10:09:07Z
2023-02-22T08:09:42Z,42.805,6.029,13.3045,4.60122,2470.693,2023-2-22T10:12:10Z
2023-02-22T08:12:45Z,42.805,6.029,13.3051,4.60138,2470.693,2023-2-22T10:15:13Z
2023-02-22T08:15:48Z,42.805,6.029,13.3049,4.60117,2470.67,2023-2-22T10:18:16Z
2023-02-22T08:18:51Z,42.805,6.029,13.3036,4.60142,2470.67,2023-2-22T10:21:19Z
2023-02-22T08:21:54Z,42.805,6.029,13.3040,4.60144,2470.693,2023-2-22T10:24:22Z
2023-02-22T08:24:57Z,42.805,6.029,13.3043,4.60156,2470.717,2023-2-22T10:27:25Z
2023-02-22T08:28:01Z,42.805,6.029,13.3054,4.60144,2470.693,2023-2-22T10:30:28Z
2023-02-22T08:31:04Z,42.805,6.029,13.3049,4.60137,2470.693,2023-2-22T10:33:31Z
2023-02-22T08:34:07Z,42.805,6.029,13.3035,4.60133,2470.67,2023-2-22T10:36:35Z
2023-02-22T08:37:10Z,42.805,6.029,13.3040,4.60112,2470.717,2023-2-22T10:39:38Z
2023-02-22T08:40:13Z,42.805,6.029,13.3041,4.60148,2470.67,2023-2-22T10:42:41Z
2023-02-22T08:43:16Z,42.805,6.029,13.3041,4.60131,2470.684,2023-2-22T10:45:44Z
2023-02-22T08:46:19Z,42.805,6.029,13.3039,4.60147,2470.684,2023-2-22T10:48:47Z
2023-02-22T08:49:22Z,42.805,6.029,13.3043,4.60143,2470.693,2023-2-22T10:51:50Z
2023-02-22T08:52:25Z,42.805,6.029,13.3043,4.60117,2470.684,2023-2-22T10:54:53Z
2023-02-22T08:55:28Z,42.805,6.029,13.3034,4.60114,2470.67,2023-2-22T10:57:56Z
2023-02-22T08:58:31Z,42.805,6.029,13.3039,4.60129,2470.67,2023-2-22T11:00:59Z
2023-02-22T09:01:34Z,42.805,6.029,13.3032,4.60125,2470.67,2023-2-22T11:04:02Z
2023-02-22T09:04:38Z,42.805,6.029,13.3035,4.60126,2470.67,2023-2-22T11:07:05Z
2023-02-22T09:07:41Z,42.805,6.029,13.3045,4.60122,2470.684,2023-2-22T11:10:08Z
2023-02-22T09:10:44Z,42.805,6.029,13.3033,4.60120,2470.67,2023-2-22T11:13:12Z
2023-02-22T09:13:47Z,42.805,6.029,13.3029,4.60121,2470.67,2023-2-22T11:16:15Z
2023-02-22T09:16:50Z,42.805,6.029,13.3027,4.60112,2470.707,2023-2-22T11:19:18Z
2023-02-22T09:19:53Z,42.805,6.029,13.3021,4.60111,2470.707,2023-2-22T11:22:21Z
2023-02-22T09:22:56Z,42.805,6.029,13.3033,4.60127,2470.684,2023-2-22T11:25:24Z
2023-02-22T09:25:59Z,42.805,6.029,13.3026,4.60107,2470.693,2023-2-22T11:28:27Z
2023-02-22T09:29:02Z,42.805,6.029,13.3031,4.60111,2470.707,2023-2-22T11:31:30Z
2023-02-22T09:32:05Z,42.805,6.029,13.3031,4.60107,2470.67,2023-2-22T11:34:33Z
2023-02-22T09:35:08Z,42.805,6.029,13.3029,4.60113,2470.67,2023-2-22T11:37:36Z
2023-02-22T09:38:12Z,42.805,6.029,13.3033,4.60103,2470.707,2023-2-22T11:40:39Z
2023-02-22T09:41:15Z,42.805,6.029,13.3029,4.60119,2470.693,2023-2-22T11:43:42Z
2023-02-22T09:44:18Z,42.805,6.029,13.3031,4.60117,2470.693,2023-2-22T11:46:45Z
2023-02-22T09:47:21Z,42.805,6.029,13.3032,4.60135,2470.684,2023-2-22T11:49:49Z
2023-02-22T09:50:24Z,42.805,6.029,13.3034,4.60121,2470.646,2023-2-22T11:52:52Z
2023-02-22T09:53:27Z,42.805,6.029,13.3028,4.60105,2470.684,2023-2-22T11:55:55Z
2023-02-22T09:56:30Z,42.805,6.029,13.3028,4.60118,2470.646,2023-2-22T11:58:58Z
2023-02-22T09:59:33Z,42.805,6.029,13.3030,4.60105,2470.707,2023-2-22T12:02:01Z
2023-02-22T10:02:36Z,42.805,6.029,13.3026,4.60121,2470.693,2023-2-22T12:05:04Z
2023-02-22T10:05:39Z,42.805,6.029,13.3026,4.60127,2470.67,2023-2-22T12:08:07Z
2023-02-22T10:08:42Z,42.805,6.029,13.3035,4.60124,2470.646,2023-2-22T12:11:10Z
2023-02-22T10:11:45Z,42.805,6.029,13.3029,4.60099,2470.67,2023-2-22T12:14:13Z
2023-02-22T10:14:49Z,42.805,6.029,13.3024,4.60097,2470.684,2023-2-22T12:17:16Z
2023-02-22T10:17:52Z,42.805,6.029,13.3022,4.60101,2470.67,2023-2-22T12:20:19Z
2023-02-22T10:20:55Z,42.805,6.029,13.3026,4.60119,2470.624,2023-2-22T12:23:23Z
2023-02-22T10:23:58Z,42.805,6.029,13.3035,4.60106,2470.684,2023-2-22T12:26:26Z
2023-02-22T10:27:01Z,42.805,6.029,13.3024,4.60105,2470.684,2023-2-22T12:29:29Z
2023-02-22T10:30:04Z,42.805,6.029,13.3032,4.60109,2470.637,2023-2-22T12:32:32Z
2023-02-22T10:33:07Z,42.805,6.029,13.3028,4.60097,2470.661,2023-2-22T12:35:35Z
2023-02-22T10:36:10Z,42.805,6.029,13.3027,4.60113,2470.684,2023-2-22T12:38:38Z
2023-02-22T10:39:13Z,42.805,6.029,13.3029,4.60107,2470.646,2023-2-22T12:41:41Z
2023-02-22T10:42:16Z,42.805,6.029,13.3035,4.60112,2470.6,2023-2-22T12:44:44Z
2023-02-22T10:45:19Z,42.805,6.029,13.3028,4.60117,2470.661,2023-2-22T12:47:47Z
2023-02-22T10:48:22Z,42.805,6.029,13.3026,4.60111,2470.646,2023-2-22T12:50:50Z
2023-02-22T10:51:26Z,42.805,6.029,13.3033,4.60105,2470.637,2023-2-22T12:53:53Z
2023-02-22T10:54:29Z,42.805,6.029,13.3021,4.60111,2470.661,2023-2-22T12:56:57Z
2023-02-22T10:57:32Z,42.805,6.029,13.3025,4.60104,2470.624,2023-2-22T13:00:00Z
2023-02-22T11:00:35Z,42.805,6.029,13.3029,4.60103,2470.637,2023-2-22T13:03:03Z
2023-02-22T11:03:38Z,42.805,6.029,13.3026,4.60115,2470.6,2023-2-22T13:06:06Z
2023-02-22T11:06:41Z,42.805,6.029,13.3030,4.60110,2470.637,2023-2-22T13:09:09Z
2023-02-22T11:09:44Z,42.805,6.029,13.3032,4.60099,2470.624,2023-2-22T13:12:12Z
2023-02-22T11:12:47Z,42.805,6.029,13.3031,4.60114,2470.6,2023-2-22T13:15:15Z
2023-02-22T11:15:50Z,42.805,6.029,13.3022,4.60110,2470.577,2023-2-22T13:18:18Z
2023-02-22T11:18:53Z,42.805,6.029,13.3026,4.60101,2470.6,2023-2-22T13:21:21Z
2023-02-22T11:21:56Z,42.805,6.029,13.3024,4.60094,2470.6,2023-2-22T13:24:24Z
2023-02-22T11:24:59Z,42.805,6.029,13.3036,4.60117,2470.637,2023-2-22T13:27:27Z
2023-02-22T11:28:03Z,42.805,6.029,13.3025,4.60104,2470.591,2023-2-22T13:30:30Z
2023-02-22T11:31:06Z,42.805,6.029,13.3024,4.60102,2470.6,2023-2-22T13:33:34Z
2023-02-22T11:34:09Z,42.805,6.029,13.3032,4.60113,2470.6,2023-2-22T13:36:37Z
2023-02-22T11:37:12Z,42.805,6.029,13.3027,4.60111,2470.6,2023-2-22T13:39:40Z
2023-02-22T11:40:15Z,42.805,6.029,13.3037,4.60112,2470.577,2023-2-22T13:42:43Z
2023-02-22T11:43:18Z,42.805,6.029,13.3032,4.60101,2470.6,2023-2-22T13:45:46Z
2023-02-22T11:46:21Z,42.805,6.029,13.3031,4.60103,2470.6,2023-2-22T13:48:49Z
2023-02-22T11:49:24Z,42.805,6.029,13.3026,4.60099,2470.591,2023-2-22T13:51:52Z
2023-02-22T11:52:27Z,42.805,6.029,13.3021,4.60089,2470.614,2023-2-22T13:54:55Z
2023-02-22T11:55:30Z,42.805,6.029,13.3021,4.60097,2470.6,2023-2-22T13:57:58Z
2023-02-22T11:58:33Z,42.805,6.029,13.3024,4.60116,2470.591,2023-2-22T14:01:01Z
2023-02-22T12:01:36Z,42.805,6.029,13.3029,4.60110,2470.553,2023-2-22T14:04:04Z
2023-02-22T12:04:40Z,42.805,6.029,13.3029,4.60110,2470.577,2023-2-22T14:07:07Z
2023-02-22T12:07:43Z,42.805,6.029,13.3030,4.60111,2470.553,2023-2-22T14:10:11Z
2023-02-22T12:10:46Z,42.805,6.029,13.3024,4.60107,2470.577,2023-2-22T14:13:14Z
2023-02-22T12:13:49Z,42.805,6.029,13.3034,4.60099,2470.6,2023-2-22T14:16:17Z
2023-02-22T12:16:52Z,42.805,6.029,13.3027,4.60114,2470.544,2023-2-22T14:19:20Z
2023-02-22T12:19:55Z,42.805,6.029,13.3024,4.60110,2470.553,2023-2-22T14:22:23Z
2023-02-22T12:22:58Z,42.805,6.029,13.3027,4.60117,2470.567,2023-2-22T14:25:26Z
2023-02-22T12:26:01Z,42.805,6.029,13.3033,4.60123,2470.591,2023-2-22T14:28:29Z
2023-02-22T12:29:04Z,42.805,6.029,13.3024,4.60111,2470.553,2023-2-22T14:31:32Z
2023-02-22T12:32:07Z,42.805,6.029,13.3029,4.60107,2470.553,2023-2-22T14:34:35Z
2023-02-22T12:35:10Z,42.805,6.029,13.3027,4.60094,2470.591,2023-2-22T14:37:38Z
2023-02-22T12:38:13Z,42.805,6.029,13.3026,4.60113,2470.553,2023-2-22T14:40:41Z
2023-02-22T12:41:17Z,42.805,6.029,13.3022,4.60107,2470.53,2023-2-22T14:43:44Z
2023-02-22T12:44:20Z,42.805,6.029,13.3025,4.60104,2470.52,2023-2-22T14:46:48Z
2023-02-22T12:47:23Z,42.805,6.029,13.3024,4.60111,2470.544,2023-2-22T14:49:51Z
2023-02-22T12:50:26Z,42.805,6.029,13.3041,4.60099,2470.507,2023-2-22T14:52:54Z
2023-02-22T12:53:29Z,42.805,6.029,13.3024,4.60097,2470.544,2023-2-22T14:55:57Z
2023-02-22T12:56:32Z,42.805,6.029,13.3026,4.60107,2470.507,2023-2-22T14:59:00Z
2023-02-22T12:59:35Z,42.805,6.029,13.3020,4.60110,2470.53,2023-2-22T15:02:03Z
2023-02-22T13:02:38Z,42.805,6.029,13.3028,4.60107,2470.483,2023-2-22T15:05:06Z
2023-02-22T13:05:41Z,42.805,6.029,13.3024,4.60103,2470.483,2023-2-22T15:08:09Z
2023-02-22T13:08:44Z,42.805,6.029,13.3034,4.60121,2470.483,2023-2-22T15:11:12Z
2023-02-22T13:11:47Z,42.805,6.029,13.3029,4.60127,2470.483,2023-2-22T15:14:15Z
2023-02-22T13:14:50Z,42.805,6.029,13.3034,4.60123,2470.497,2023-2-22T15:17:18Z
2023-02-22T13:17:54Z,42.805,6.029,13.3035,4.60125,2470.483,2023-2-22T15:20:21Z
2023-02-22T13:20:57Z,42.805,6.029,13.3031,4.60101,2470.46,2023-2-22T15:23:25Z
2023-02-22T13:24:00Z,42.805,6.029,13.3032,4.60134,2470.483,2023-2-22T15:26:28Z
2023-02-22T13:27:03Z,42.805,6.029,13.3036,4.60089,2470.507,2023-2-22T15:29:31Z
2023-02-22T13:30:06Z,42.805,6.029,13.3043,4.60095,2470.497,2023-2-22T15:32:34Z
2023-02-22T13:33:09Z,42.805,6.029,13.3036,4.60120,2470.483,2023-2-22T15:35:37Z
2023-02-22T13:36:12Z,42.805,6.029,13.3025,4.60108,2470.46,2023-2-22T15:38:40Z
2023-02-22T13:39:15Z,42.805,6.029,13.3032,4.60122,2470.497,2023-2-22T15:41:43Z
2023-02-22T13:42:18Z,42.805,6.029,13.3023,4.60122,2470.46,2023-2-22T15:44:46Z
2023-02-22T13:45:21Z,42.805,6.029,13.3025,4.60117,2470.46,2023-2-22T15:47:49Z
2023-02-22T13:48:24Z,42.805,6.029,13.3028,4.60127,2470.437,2023-2-22T15:50:52Z
2023-02-22T13:51:28Z,42.805,6.029,13.3029,4.60122,2470.497,2023-2-22T15:53:55Z
2023-02-22T13:54:31Z,42.805,6.029,13.3031,4.60127,2470.45,2023-2-22T15:56:59Z
2023-02-22T13:57:34Z,42.805,6.029,13.3032,4.60128,2470.474,2023-2-22T16:00:02Z
2023-02-22T14:00:37Z,42.805,6.029,13.3039,4.60117,2470.46,2023-2-22T16:03:05Z
2023-02-22T14:03:40Z,42.805,6.029,13.3031,4.60108,2470.437,2023-2-22T16:06:08Z
2023-02-22T14:06:43Z,42.805,6.029,13.3037,4.60097,2470.45,2023-2-22T16:09:11Z
2023-02-22T14:09:46Z,42.805,6.029,13.3032,4.60099,2470.437,2023-2-22T16:12:14Z
2023-02-22T14:12:49Z,42.805,6.029,13.3032,4.60113,2470.46,2023-2-22T16:15:17Z
2023-02-22T14:15:52Z,42.805,6.029,13.3036,4.60124,2470.437,2023-2-22T16:18:20Z
2023-02-22T14:18:55Z,42.805,6.029,13.3035,4.60114,2470.413,2023-2-22T16:21:23Z
2023-02-22T14:21:58Z,42.805,6.029,13.3031,4.60109,2470.45,2023-2-22T16:24:26Z
2023-02-22T14:25:01Z,42.805,6.029,13.3041,4.60121,2470.437,2023-2-22T16:27:29Z
2023-02-22T14:28:05Z,42.805,6.029,13.3034,4.60105,2470.437,2023-2-22T16:30:32Z
2023-02-22T14:31:08Z,42.805,6.029,13.3030,4.60117,2470.413,2023-2-22T16:33:36Z
2023-02-22T14:34:11Z,42.805,6.029,13.3042,4.60095,2470.474,2023-2-22T16:36:39Z
2023-02-22T14:37:14Z,42.805,6.029,13.3026,4.60118,2470.404,2023-2-22T16:39:42Z
2023-02-22T14:40:17Z,42.805,6.029,13.3032,4.60137,2470.404,2023-2-22T16:42:45Z
2023-02-22T14:43:20Z,42.805,6.029,13.3031,4.60103,2470.413,2023-2-22T16:45:48Z
2023-02-22T14:46:23Z,42.805,6.029,13.3036,4.60089,2470.423,2023-2-22T16:48:51Z
2023-02-22T14:49:26Z,42.805,6.029,13.3041,4.60090,2470.427,2023-2-22T16:51:54Z
2023-02-22T14:52:29Z,42.805,6.029,13.3031,4.60140,2470.45,2023-2-22T16:54:57Z
2023-02-22T14:55:32Z,42.805,6.029,13.3032,4.60135,2470.427,2023-2-22T16:58:00Z
2023-02-22T14:58:35Z,42.805,6.029,13.3034,4.60116,2470.413,2023-2-22T17:01:03Z
2023-02-22T15:01:38Z,42.805,6.029,13.3040,4.60143,2470.427,2023-2-22T17:04:06Z
2023-02-22T15:04:41Z,42.805,6.029,13.3029,4.60102,2470.413,2023-2-22T17:07:09Z
2023-02-22T15:07:45Z,42.805,6.029,13.3029,4.60099,2470.437,2023-2-22T17:10:13Z
2023-02-22T15:10:48Z,42.805,6.029,13.3037,4.60108,2470.427,2023-2-22T17:13:16Z
2023-02-22T15:13:51Z,42.805,6.029,13.3040,4.60099,2470.413,2023-2-22T17:16:19Z